Time,TemperatureF,DewpointF,PressureIn,WindDirection,WindDirectionDegrees,WindSpeedMPH,WindSpeedGustMPH,Humidity,HourlyPrecipIn,Conditions,Clouds,dailyrainin,SoftwareType,DateUTC
2013-02-12 00:01:00,27.0,22.0,30.02,West,276,0.0,0.0,81,0.00,,,0.02,,2013-02-12 06:01:00,
2013-02-12 00:12:00,26.0,21.0,30.03,WNW,283,0.0,0.0,82,0.00,,,0.02,,2013-02-12 06:12:00,
2013-02-12 00:21:00,26.0,21.0,30.03,WNW,283,0.0,0.0,82,0.00,,,0.02,,2013-02-12 06:21:00,
2013-02-12 00:32:00,26.0,21.0,30.04,West,269,0.0,0.0,82,0.00,,,0.01,,2013-02-12 06:32:00,
2013-02-12 00:42:00,26.0,21.0,30.04,West,269,0.0,0.0,82,0.00,,,0.01,,2013-02-12 06:42:00,
2013-02-12 00:51:00,26.0,21.0,30.04,West,269,0.0,0.0,82,0.00,,,0.01,,2013-02-12 06:51:00,
2013-02-12 01:01:00,26.0,22.0,30.04,West,266,0.0,0.0,83,0.00,,,0.01,,2013-02-12 07:01:00,
2013-02-12 01:11:00,26.0,22.0,30.04,West,266,0.0,0.0,83,0.00,,,0.01,,2013-02-12 07:11:00,
2013-02-12 01:21:00,26.0,22.0,30.04,West,266,0.0,0.0,83,0.00,,,0.01,,2013-02-12 07:21:00,
2013-02-12 01:31:00,26.0,22.0,30.04,West,266,0.0,0.0,83,0.00,,,0.01,,2013-02-12 07:31:00,
2013-02-12 01:52:00,25.0,21.0,30.06,West,275,0.0,0.0,83,0.00,,,0.00,,2013-02-12 07:52:00,
2013-02-12 02:01:00,24.0,19.0,30.07,West,279,0.0,0.0,81,0.00,,,0.00,,2013-02-12 08:01:00,
2013-02-12 02:11:00,24.0,19.0,30.07,West,279,0.0,0.0,81,0.00,,,0.00,,2013-02-12 08:11:00,
2013-02-12 02:21:00,24.0,19.0,30.08,West,280,0.0,0.0,82,0.00,,,0.00,,2013-02-12 08:21:00,
2013-02-12 02:32:00,24.0,19.0,30.08,West,280,0.0,0.0,82,0.00,,,0.00,,2013-02-12 08:32:00,
2013-02-12 02:41:00,24.0,19.0,30.08,West,280,0.0,0.0,82,0.00,,,0.00,,2013-02-12 08:41:00,
2013-02-12 02:52:00,24.0,19.0,30.08,West,278,0.0,0.0,81,0.00,,,0.00,,2013-02-12 08:52:00,
2013-02-12 03:01:00,24.0,19.0,30.08,West,277,0.0,0.0,81,0.00,,,0.00,,2013-02-12 09:01:00,
2013-02-12 03:11:00,24.0,19.0,30.08,West,277,0.0,0.0,81,0.00,,,0.00,,2013-02-12 09:11:00,
2013-02-12 03:21:00,24.0,19.0,30.08,West,277,0.0,0.0,81,0.00,,,0.00,,2013-02-12 09:21:00,
2013-02-12 03:32:00,24.0,19.0,30.08,West,280,0.0,0.0,82,0.00,,,0.00,,2013-02-12 09:32:00,
2013-02-12 03:41:00,24.0,19.0,30.08,West,280,0.0,0.0,82,0.00,,,0.00,,2013-02-12 09:41:00,
2013-02-12 03:52:00,24.0,19.0,30.08,West,276,0.0,0.0,82,0.00,,,0.00,,2013-02-12 09:52:00,
2013-02-12 04:01:00,24.0,19.0,30.08,WNW,283,0.0,0.0,82,0.00,,,0.00,,2013-02-12 10:01:00,
2013-02-12 04:11:00,24.0,19.0,30.08,West,271,0.0,0.0,82,0.00,,,0.00,,2013-02-12 10:11:00,
2013-02-12 04:21:00,24.0,19.0,30.08,West,271,0.0,0.0,82,0.00,,,0.00,,2013-02-12 10:21:00,
2013-02-12 04:31:00,24.0,19.0,30.08,WSW,257,0.0,0.0,82,0.00,,,0.00,,2013-02-12 10:31:00,
2013-02-12 04:43:00,24.0,19.0,30.08,WSW,257,0.0,0.0,82,0.00,,,0.00,,2013-02-12 10:43:00,
2013-02-12 04:51:00,24.0,19.0,30.08,WSW,257,0.0,0.0,82,0.00,,,0.00,,2013-02-12 10:51:00,
2013-02-12 05:01:00,24.0,19.0,30.08,WSW,257,0.0,0.0,82,0.00,,,0.00,,2013-02-12 11:01:00,
2013-02-12 05:11:00,24.0,19.0,30.08,WSW,257,0.0,0.0,82,0.00,,,0.00,,2013-02-12 11:11:00,
2013-02-12 05:32:00,24.0,20.0,30.08,West,281,0.0,0.0,83,0.00,,,0.00,,2013-02-12 11:32:00,
2013-02-12 05:42:00,24.0,20.0,30.08,West,281,0.0,0.0,83,0.00,,,0.00,,2013-02-12 11:42:00,
2013-02-12 05:52:00,24.0,20.0,30.07,West,267,0.0,1.0,83,0.00,,,0.00,,2013-02-12 11:52:00,
2013-02-12 06:01:00,24.0,20.0,30.07,WNW,282,0.0,0.0,83,0.00,,,0.00,,2013-02-12 12:01:00,
2013-02-12 06:11:00,24.0,20.0,30.07,WNW,282,0.0,0.0,83,0.00,,,0.00,,2013-02-12 12:11:00,
2013-02-12 06:21:00,24.0,20.0,30.07,West,277,0.0,0.0,84,0.00,,,0.00,,2013-02-12 12:21:00,
2013-02-12 06:32:00,24.0,20.0,30.07,West,277,0.0,0.0,84,0.00,,,0.00,,2013-02-12 12:32:00,
2013-02-12 06:42:00,24.0,20.0,30.07,West,277,0.0,0.0,84,0.00,,,0.00,,2013-02-12 12:42:00,
2013-02-12 06:52:00,24.0,20.0,30.07,West,275,0.0,0.0,84,0.00,,,0.00,,2013-02-12 12:52:00,
2013-02-12 07:01:00,24.0,20.0,30.07,West,275,0.0,0.0,84,0.00,,,0.00,,2013-02-12 13:01:00,
2013-02-12 07:11:00,24.0,20.0,30.07,West,275,0.0,0.0,84,0.00,,,0.00,,2013-02-12 13:11:00,
2013-02-12 07:22:00,24.0,20.0,30.07,West,275,0.0,0.0,84,0.00,,,0.00,,2013-02-12 13:22:00,
2013-02-12 07:32:00,23.0,19.0,30.08,West,277,0.0,0.0,84,0.00,,,0.00,,2013-02-12 13:32:00,
2013-02-12 07:42:00,23.0,19.0,30.08,West,277,0.0,0.0,84,0.00,,,0.00,,2013-02-12 13:42:00,
2013-02-12 07:52:00,23.0,19.0,30.09,West,278,0.0,0.0,85,0.00,,,0.00,,2013-02-12 13:52:00,
2013-02-12 08:01:00,24.0,20.0,30.10,West,280,0.0,0.0,85,0.00,,,0.00,,2013-02-12 14:01:00,
2013-02-12 08:11:00,24.0,20.0,30.10,West,280,0.0,0.0,85,0.00,,,0.00,,2013-02-12 14:11:00,
2013-02-12 08:21:00,24.0,20.0,30.10,West,273,0.0,0.0,85,0.00,,,0.00,,2013-02-12 14:21:00,
2013-02-12 08:32:00,24.0,20.0,30.10,West,276,0.0,0.0,85,0.00,,,0.00,,2013-02-12 14:32:00,
2013-02-12 08:42:00,24.0,20.0,30.10,West,276,0.0,0.0,85,0.00,,,0.00,,2013-02-12 14:42:00,
2013-02-12 08:52:00,24.0,20.0,30.10,West,276,0.0,0.0,85,0.00,,,0.00,,2013-02-12 14:52:00,
2013-02-12 09:02:00,24.0,20.0,30.10,West,276,0.0,0.0,85,0.00,,,0.00,,2013-02-12 15:02:00,
2013-02-12 09:11:00,24.0,20.0,30.10,West,276,0.0,0.0,85,0.00,,,0.00,,2013-02-12 15:11:00,
2013-02-12 09:32:00,24.0,20.0,30.10,West,277,0.0,0.0,84,0.00,,,0.00,,2013-02-12 15:32:00,
2013-02-12 09:42:00,24.0,20.0,30.10,West,277,0.0,0.0,84,0.00,,,0.00,,2013-02-12 15:42:00,
2013-02-12 09:52:00,24.0,20.0,30.10,West,277,0.0,0.0,84,0.00,,,0.00,,2013-02-12 15:52:00,
2013-02-12 10:01:00,24.0,20.0,30.10,West,277,0.0,0.0,84,0.00,,,0.00,,2013-02-12 16:01:00,
2013-02-12 10:11:00,24.0,20.0,30.10,West,277,0.0,0.0,84,0.00,,,0.00,,2013-02-12 16:11:00,
2013-02-12 10:22:00,24.0,20.0,30.10,West,277,0.0,0.0,84,0.00,,,0.00,,2013-02-12 16:22:00,
2013-02-12 10:32:00,24.0,18.0,30.09,West,276,0.0,0.0,79,0.00,,,0.00,,2013-02-12 16:32:00,
2013-02-12 10:42:00,24.0,18.0,30.09,West,276,0.0,0.0,79,0.00,,,0.00,,2013-02-12 16:42:00,
2013-02-12 10:52:00,24.0,18.0,30.10,WSW,256,0.0,0.0,79,0.00,,,0.00,,2013-02-12 16:52:00,
2013-02-12 11:01:00,25.0,19.0,30.11,West,279,0.0,0.0,79,0.00,,,0.00,,2013-02-12 17:01:00,
2013-02-12 11:12:00,25.0,19.0,30.11,West,279,0.0,0.0,79,0.00,,,0.00,,2013-02-12 17:12:00,
2013-02-12 11:21:00,25.0,19.0,30.11,West,279,0.0,0.0,79,0.00,,,0.00,,2013-02-12 17:21:00,
2013-02-12 11:32:00,25.0,20.0,30.11,West,281,0.0,0.0,80,0.00,,,0.00,,2013-02-12 17:32:00,
2013-02-12 11:42:00,25.0,20.0,30.11,West,281,0.0,0.0,80,0.00,,,0.00,,2013-02-12 17:42:00,
2013-02-12 11:52:00,25.0,20.0,30.11,West,281,0.0,0.0,80,0.00,,,0.00,,2013-02-12 17:52:00,
2013-02-12 12:01:00,24.0,20.0,30.08,West,264,0.0,0.0,83,0.00,,,0.00,,2013-02-12 18:01:00,
2013-02-12 12:11:00,25.0,21.0,30.07,West,269,0.0,0.0,84,0.00,,,0.00,,2013-02-12 18:11:00,
2013-02-12 12:23:00,25.0,21.0,30.07,West,269,0.0,0.0,84,0.00,,,0.00,,2013-02-12 18:23:00,
2013-02-12 12:31:00,24.0,20.0,30.06,West,276,0.0,0.0,83,0.00,,,0.00,,2013-02-12 18:31:00,
2013-02-12 12:41:00,24.0,20.0,30.06,West,276,0.0,0.0,83,0.00,,,0.00,,2013-02-12 18:41:00,
2013-02-12 12:51:00,25.0,21.0,30.05,WNW,282,0.0,0.0,83,0.00,,,0.00,,2013-02-12 18:51:00,
2013-02-12 13:02:00,25.0,20.0,30.04,West,272,0.0,0.0,82,0.00,,,0.00,,2013-02-12 19:02:00,
2013-02-12 13:11:00,25.0,20.0,30.04,West,272,0.0,0.0,82,0.00,,,0.00,,2013-02-12 19:11:00,
2013-02-12 13:21:00,25.0,20.0,30.04,WNW,282,0.0,0.0,81,0.00,,,0.00,,2013-02-12 19:21:00,
2013-02-12 13:31:00,26.0,21.0,30.04,WNW,282,0.0,0.0,81,0.00,,,0.00,,2013-02-12 19:31:00,
2013-02-12 13:41:00,26.0,21.0,30.04,WNW,282,0.0,0.0,81,0.00,,,0.00,,2013-02-12 19:41:00,
2013-02-12 13:51:00,26.0,21.0,30.04,WNW,282,0.0,0.0,81,0.00,,,0.00,,2013-02-12 19:51:00,
2013-02-12 14:01:00,26.0,21.0,30.04,WNW,282,0.0,0.0,81,0.00,,,0.00,,2013-02-12 20:01:00,
2013-02-12 14:32:00,27.0,21.0,30.03,West,277,0.0,0.0,79,0.00,,,0.00,,2013-02-12 20:32:00,
2013-02-12 14:42:00,27.0,21.0,30.03,West,277,0.0,0.0,79,0.00,,,0.00,,2013-02-12 20:42:00,
2013-02-12 14:52:00,27.0,21.0,30.03,West,277,0.0,0.0,79,0.00,,,0.00,,2013-02-12 20:52:00,
2013-02-12 15:01:00,27.0,21.0,30.03,West,277,0.0,0.0,79,0.00,,,0.00,,2013-02-12 21:01:00,
2013-02-12 15:11:00,27.0,21.0,30.03,West,277,0.0,0.0,79,0.00,,,0.00,,2013-02-12 21:11:00,
2013-02-12 15:21:00,28.0,22.0,30.01,West,276,0.0,0.0,79,0.00,,,0.00,,2013-02-12 21:21:00,
2013-02-12 15:31:00,29.0,23.0,30.01,WSW,248,0.0,0.0,77,0.00,,,0.00,,2013-02-12 21:31:00,
2013-02-12 15:42:00,29.0,23.0,30.01,WSW,248,0.0,0.0,77,0.00,,,0.00,,2013-02-12 21:42:00,
2013-02-12 15:51:00,29.0,23.0,30.01,WSW,248,0.0,0.0,77,0.00,,,0.00,,2013-02-12 21:51:00,
2013-02-12 16:01:00,29.0,23.0,30.00,West,261,0.0,0.0,77,0.00,,,0.00,,2013-02-12 22:01:00,
2013-02-12 16:12:00,29.0,23.0,30.00,West,261,0.0,0.0,77,0.00,,,0.00,,2013-02-12 22:12:00,
2013-02-12 16:21:00,29.0,23.0,30.00,West,261,0.0,0.0,77,0.00,,,0.00,,2013-02-12 22:21:00,
2013-02-12 16:32:00,31.0,24.0,29.99,WSW,251,0.0,1.0,75,0.00,,,0.00,,2013-02-12 22:32:00,
2013-02-12 16:41:00,31.0,24.0,29.99,WSW,251,0.0,1.0,75,0.00,,,0.00,,2013-02-12 22:41:00,
2013-02-12 16:52:00,31.0,24.0,29.99,WSW,251,0.0,1.0,75,0.00,,,0.00,,2013-02-12 22:52:00,
2013-02-12 17:01:00,31.0,24.0,29.99,WSW,251,0.0,1.0,75,0.00,,,0.00,,2013-02-12 23:01:00,
2013-02-12 17:11:00,31.0,24.0,29.99,WSW,251,0.0,1.0,75,0.00,,,0.00,,2013-02-12 23:11:00,
2013-02-12 18:02:00,29.0,24.0,29.98,WSW,253,0.0,0.0,80,0.00,,,0.00,,2013-02-13 00:02:00,
2013-02-12 18:11:00,29.0,24.0,29.98,WSW,253,0.0,0.0,80,0.00,,,0.00,,2013-02-13 00:11:00,
2013-02-12 18:21:00,28.0,23.0,29.98,WSW,253,0.0,0.0,81,0.00,,,0.00,,2013-02-13 00:21:00,
2013-02-12 18:32:00,28.0,25.0,29.97,WSW,253,0.0,0.0,87,0.00,,,0.00,,2013-02-13 00:32:00,
2013-02-12 18:42:00,28.0,25.0,29.97,WSW,253,0.0,0.0,87,0.00,,,0.00,,2013-02-13 00:42:00,
2013-02-12 18:51:00,28.0,25.0,29.97,WSW,253,0.0,0.0,87,0.00,,,0.00,,2013-02-13 00:51:00,
2013-02-12 19:01:00,27.0,23.0,29.96,WSW,247,0.0,1.0,84,0.00,,,0.00,,2013-02-13 01:01:00,
2013-02-12 19:11:00,27.0,23.0,29.96,WSW,247,0.0,1.0,84,0.00,,,0.00,,2013-02-13 01:11:00,
2013-02-12 19:21:00,27.0,23.0,29.96,WSW,247,0.0,1.0,85,0.00,,,0.00,,2013-02-13 01:21:00,
2013-02-12 19:31:00,27.0,23.0,29.96,WSW,247,0.0,1.0,85,0.00,,,0.00,,2013-02-13 01:31:00,
2013-02-12 19:42:00,27.0,23.0,29.96,WSW,247,0.0,1.0,85,0.00,,,0.00,,2013-02-13 01:42:00,
2013-02-12 19:51:00,27.0,23.0,29.96,WSW,247,0.0,1.0,85,0.00,,,0.00,,2013-02-13 01:51:00,
2013-02-12 20:22:00,25.0,22.0,29.96,WSW,247,0.0,1.0,88,0.00,,,0.00,,2013-02-13 02:22:00,
2013-02-12 20:31:00,25.0,22.0,29.96,WSW,247,0.0,0.0,89,0.00,,,0.00,,2013-02-13 02:31:00,
2013-02-12 20:41:00,25.0,22.0,29.96,WSW,247,0.0,0.0,89,0.00,,,0.00,,2013-02-13 02:41:00,
2013-02-12 20:52:00,25.0,22.0,29.96,WSW,247,0.0,0.0,89,0.00,,,0.00,,2013-02-13 02:52:00,
2013-02-12 21:01:00,25.0,22.0,29.96,WSW,247,0.0,0.0,89,0.00,,,0.00,,2013-02-13 03:01:00,
2013-02-12 21:11:00,25.0,22.0,29.95,SW,224,0.0,1.0,89,0.00,,,0.00,,2013-02-13 03:11:00,
2013-02-12 21:21:00,25.0,22.0,29.95,SW,224,0.0,1.0,89,0.00,,,0.00,,2013-02-13 03:21:00,
2013-02-12 21:32:00,25.0,22.0,29.95,SW,224,0.0,1.0,89,0.00,,,0.00,,2013-02-13 03:32:00,
2013-02-12 21:42:00,25.0,22.0,29.95,SW,224,0.0,1.0,89,0.00,,,0.00,,2013-02-13 03:42:00,
2013-02-12 21:51:00,25.0,22.0,29.94,SW,223,0.0,1.0,90,0.00,,,0.00,,2013-02-13 03:51:00,
2013-02-12 22:01:00,25.0,22.0,29.93,SW,223,0.0,1.0,90,0.00,,,0.00,,2013-02-13 04:01:00,
2013-02-12 22:11:00,25.0,22.0,29.93,SW,223,0.0,1.0,90,0.00,,,0.00,,2013-02-13 04:11:00,
2013-02-12 22:21:00,25.0,22.0,29.93,SW,223,0.0,1.0,90,0.00,,,0.00,,2013-02-13 04:21:00,
2013-02-12 22:32:00,25.0,23.0,29.93,SW,223,0.0,1.0,91,0.00,,,0.00,,2013-02-13 04:32:00,
2013-02-12 22:42:00,25.0,23.0,29.93,SW,223,0.0,1.0,91,0.00,,,0.00,,2013-02-13 04:42:00,
2013-02-12 22:52:00,25.0,23.0,29.93,SW,223,0.0,1.0,91,0.00,,,0.00,,2013-02-13 04:52:00,
2013-02-12 23:01:00,24.0,22.0,29.92,SW,223,0.0,1.0,91,0.00,,,0.00,,2013-02-13 05:01:00,
2013-02-12 23:11:00,24.0,22.0,29.92,SW,221,0.0,1.0,92,0.00,,,0.00,,2013-02-13 05:11:00,
2013-02-12 23:22:00,24.0,22.0,29.92,SW,221,0.0,1.0,92,0.00,,,0.00,,2013-02-13 05:22:00,
2013-02-12 23:31:00,25.0,23.0,29.91,SSW,199,0.0,1.0,92,0.00,,,0.00,,2013-02-13 05:31:00,
2013-02-12 23:41:00,25.0,23.0,29.91,SSW,199,0.0,1.0,92,0.00,,,0.00,,2013-02-13 05:41:00,
2013-02-12 23:52:00,25.0,23.0,29.91,SSW,199,0.0,1.0,92,0.00,,,0.00,,2013-02-13 05:52:00,